Regional Weather Roundup
Issued by NWS

Home | Current Version | Previous Version | Graphics & Text | Print | Product List | Glossary On
Versions: 1 2 3 4 5 6 7 8 9 10 11 12 13 14 15 16 17 18 19 20 21 22 23 24 25 26 27 28 29 30 31 32 33 34 35 36 37 38 39 40 41 42 43 44 45 46 47 48 49 50
910
ASUS44 KMEG 190210
RWRTN
TENNESSEE HOURLY STATE WEATHER ROUNDUP
NATIONAL WEATHER SERVICE MEMPHIS TN
900 PM CDT WED APR 18 2018

TNZ002-004-019-021-049-052-054-088>092-190300-
WEST TENNESSEE

CITY           SKY/WX    TMP DP  RH WIND       PRES   REMARKS
MEMPHIS INTL   FAIR      68  41  37 NW15G24   29.95R
NWS MEMPHIS      N/A     69 N/A N/A MISG        N/A
JACKSON        FAIR      69  35  28 NW14      29.93R
DYERSBURG      FAIR      65  40  39 NW12G20   29.95R
SOMERVILLE       N/A     70  39  32 NW14G21   29.93R
COVINGTON      PTCLDY    64  39  39 NW12      29.95R
UNION CITY     PTCLDY    64  39  39 NW14G23   29.93R
BOLIVAR        CLEAR     70  43  37 NW6G14    29.93R
PARIS          MOCLDY    66  37  34 W8G20     29.90R
HUNTINGDON     CLOUDY    68  37  32 W10G20    29.90R
LEXINGTON      CLOUDY    64  52  63 NW8       29.90R
SELMER         MOCLDY    68  59  73 W7        29.91R
SAVANNAH       MOCLDY    68  59  73 SW9       29.89R
$$

TNZ008-025-027-028-033-062-065-066-190300-
NORTH MIDDLE TENNESSEE

CITY           SKY/WX    TMP DP  RH WIND       PRES   REMARKS
NASHVILLE      MOCLDY    69  56  62 SW15G25   29.83R
PORTLAND       MOCLDY    70  57  64 VRB7G13   29.83R
CLARKSVILLE    CLOUDY    69  34  27 W12       29.84R
SMYRNA         MOCLDY    67  58  72 S9        29.84S
COOKEVILLE     CLOUDY    64  57  77 SW16G22   29.85S
LIVINGSTON     PTCLDY    63  55  77 SW14      29.83R
GALLATIN       CLOUDY    70  57  64 VRB6G14   29.85R
CROSSVILLE     FAIR      63  53  70 SW9       29.90S
ROCKWOOD       MOCLDY    66  55  68 W8        29.89R
$$

TNZ061-075-076-078-094-096-097-190300-
SOUTH MIDDLE TENNESSEE

CITY           SKY/WX    TMP DP  RH WIND       PRES   REMARKS
LEWISBURG      CLOUDY    66  57  72 SW12      29.87R
FAYETTEVILLE   MOCLDY    66  59  77 SW8G15    29.91S
TULLAHOMA      MOCLDY    66  57  72 SW15G25   29.89S
WINCHESTER     CLOUDY    66  57  72 SW10G17   29.91S
MCMINNVILLE    PTCLDY    64  57  77 SW9G21    29.88S
COLUMBIA       MOCLDY    66  61  82 SW14      29.85R
SHELBYVILLE    MOCLDY    64  57  77 S13       29.88S
$$

TNZ017-018-042-046-047-190300-
NORTHEAST TENNESSEE

CITY           SKY/WX    TMP DP  RH WIND       PRES   REMARKS
TRI CITIES     FAIR      72  55  55 SW16G26   29.80R
ELIZABETHTON   FAIR      72  54  53 W9G17     29.80R
$$

TNZ012-013-036-069-073-074-190300-
CENTRAL EAST TENNESSEE

CITY           SKY/WX    TMP DP  RH WIND       PRES   REMARKS
KNOXVILLE      MOCLDY    72  55  55 W14       29.85R
OAK RIDGE      MOCLDY    71  57  61 VRB6      29.86R
DOWNTOWN KNOXV MOCLDY    73  57  56 W12G22    29.85R
GATLINBURG     MOCLDY    73  52  46 W10G18    29.84R
JACKSBORO      CLOUDY    68  54  60 VRB7G21   29.87R
$$

TNZ083-085-099-190300-
SOUTHEAST TENNESSEE

CITY           SKY/WX    TMP DP  RH WIND       PRES   REMARKS
CHATTANOOGA    MOCLDY    74  56  53 SW9       29.90R
DAYTON         PTCLDY    72  61  68 SW18G25   29.88R
$$

SKY/WX REPORTED AS FAIR MEANS FEW OR NO CLOUDS BELOW
12 THOUSAND FEET.





USA.gov is the U.S. government's official web portal to all federal, state and local government web resources and services.